SCP
0 1 1 0 0 0 1 1 1 1 1 1 0 0 0 0 0 0 0 0 0 0 0 0 0 0 0 0 0 0 0 0 0 0 0 0 0 0 0 0 0 0 0
0 0 1 0 0 0 1 1 1 1 1 0 0 0 0 0 0 0 0 0 0 0 0 0 0 0 0 0 0 0 0 0 0 0 0 0 0 0 0 0 0 0 0
1 1 1 1 0 0 0 1 1 1 1 0 0 0 0 0 0 0 0 0 0 0 0 0 0 0 0 0 0 0 0 0 0 0 0 0 0 0 0 0 0 0 0
1 1 1 1 1 0 0 0 1 1 1 0 0 0 0 0 0 0 0 0 0 0 0 0 0 0 0 0 0 0 0 0 0 0 0 0 0 0 0 0 0 0 0
1 1 1 1 1 1 0 0 0 0 0 0 0 0 0 0 0 0 0 0 0 0 0 0 0 0 0 0 0 0 0 0 0 0 0 0 0 0 0 0 0 0 0
0 0 0 1 1 1 0 0 0 0 0 0 0 0 0 0 0 0 0 0 0 0 0 0 0 0 0 0 0 0 0 0 0 0 0 0 0 0 0 0 0 0 0
0 0 0 0 1 1 0 0 0 0 0 0 0 0 0 0 0 0 0 0 0 0 0 0 0 0 0 0 0 0 0 0 1 1 0 0 0 0 0 0 0 0 0
0 0 0 0 0 0 0 0 0 0 0 0 0 0 0 0 0 0 0 0 0 0 0 0 0 0 0 0 0 0 0 1 1 1 1 0 1 1 1 1 1 1 1
0 0 0 0 0 0 0 0 0 0 0 0 0 0 0 0 0 0 0 0 0 0 0 0 0 0 0 0 0 0 0 0 1 1 1 1 1 1 1 1 1 1 1
0 0 0 0 0 0 0 0 0 0 0 0 0 0 0 0 0 0 0 0 0 0 0 0 0 0 0 0 0 0 0 0 0 0 0 1 1 1 1 1 1 1 1
0 0 0 0 0 0 0 0 0 0 0 0 0 0 0 0 0 0 0 0 0 0 0 0 0 0 0 0 0 0 0 0 0 0 0 0 0 1 1 1 1 1 1
0 0 0 0 0 0 0 0 0 0 0 0 0 0 0 0 0 0 0 0 0 0 0 0 0 0 0 0 0 0 0 0 0 0 0 0 0 0 0 0 0 0 0
0 0 0 0 0 0 0 0 0 0 0 0 0 0 0 0 0 0 0 0 0 0 0 0 0 0 0 0 0 0 0 0 0 0 0 0 0 0 0 0 0 0 0
0 0 0 0 0 0 0 0 0 0 0 0 0 0 0 0 0 0 0 0 0 0 0 0 0 0 0 0 0 0 0 0 0 0 0 0 0 0 0 0 0 0 0
1 0 0 0 0 0 0 0 0 0 0 0 0 0 0 0 0 0 0 0 0 0 0 0 0 0 0 0 0 0 0 0 0 0 0 0 0 0 0 0 0 0 0
1 0 0 0 0 0 0 0 0 0 0 0 0 0 0 0 0 0 0 0 0 0 0 0 0 0 0 0 0 0 0 0 0 0 0 0 0 0 0 0 0 0 0
0 0 0 0 0 0 0 0 0 0 0 0 0 0 0 0 0 0 0 0 0 0 0 0 0 0 0 0 0 0 0 0 0 0 0 0 0 0 0 0 0 0 0
0 0 0 0 0 0 0 0 0 0 0 0 0 0 0 0 0 0 0 0 0 0 1 1 0 0 0 0 0 0 0 0 0 0 0 0 0 0 0 0 0 0 0
0 0 0 0 0 0 0 0 0 0 0 0 0 0 0 0 0 0 0 0 0 0 0 0 0 0 0 0 0 0 0 0 0 0 0 0 0 0 0 0 0 0 0
0 0 0 0 0 0 0 0 0 0 0 0 0 0 0 0 0 0 0 0 0 0 0 0 0 0 0 0 0 0 0 0 0 0 0 0 0 0 0 0 0 0 0
0 0 0 0 0 0 0 0 0 0 0 0 0 0 0 0 0 0 0 0 0 0 0 0 0 0 0 0 0 0 0 0 0 0 0 0 0 0 0 0 0 0 0
0 0 0 0 0 0 0 0 0 0 0 0 0 0 0 0 0 0 0 0 0 0 0 0 0 0 0 0 0 0 0 0 0 0 0 0 0 0 0 0 0 0 0
0 0 0 0 0 0 0 0 0 0 0 0 0 1 0 0 0 0 0 0 0 0 0 0 0 0 0 0 0 0 0 0 0 0 0 0 0 0 0 0 0 0 0
0 0 0 0 0 0 0 0 0 0 0 0 0 1 0 0 0 0 0 0 0 0 0 0 0 0 0 0 0 0 0 0 0 0 0 0 0 0 0 0 0 0 0
0 0 0 0 0 0 0 0 0 0 0 0 0 1 0 0 0 0 0 0 0 0 0 0 0 0 0 0 0 0 0 0 0 0 0 0 0 0 0 0 0 0 0
0 0 0 0 0 0 0 0 0 0 0 0 0 0 0 0 0 0 0 0 0 0 0 0 0 0 0 0 0 0 0 0 0 0 0 0 0 0 0 0 0 0 0
Wind_Speed
1 1 1 1 1 1 1 1 1 2 2 2 2 2 2 2 2 2 2 5 5 4 4 3 3 3 3 3 2 3 3 3 4 4 4 4 4 5 5 5 5 5 5
1 1 1 1 1 1 1 1 1 1 1 1 2 2 1 1 1 1 1 2 4 4 4 3 3 3 3 3 2 2 2 3 3 3 3 4 4 4 4 5 5 5 5
2 1 1 1 1 1 1 1 1 1 1 1 1 1 1 1 1 1 1 0 1 3 4 4 4 3 3 3 3 3 3 3 3 3 3 3 3 4 4 4 5 5 5
2 2 1 1 1 1 1 1 1 1 1 1 0 1 1 1 1 1 1 1 1 1 2 4 4 4 4 3 3 3 3 3 3 3 4 4 3 3 4 4 4 4 5
2 2 2 1 1 1 1 0 0 1 1 1 0 0 0 1 1 1 1 1 1 1 1 2 3 4 5 4 4 4 4 3 3 4 4 4 4 4 4 4 4 4 5
2 1 1 2 2 1 1 1 1 1 1 1 1 0 0 1 1 1 1 0 1 1 1 1 1 2 4 5 5 5 5 4 4 4 5 5 5 5 4 4 4 5 5
2 2 1 2 2 2 1 2 1 1 1 1 1 1 1 1 1 1 1 0 0 1 1 1 1 2 2 4 5 6 6 6 5 5 6 6 6 5 5 5 5 5 5
2 2 2 2 2 2 2 2 2 1 1 1 1 2 1 2 1 1 1 1 1 1 1 1 2 2 2 2 4 6 7 7 7 6 6 6 6 6 6 6 6 6 6
2 2 2 2 2 2 3 3 3 3 2 2 1 1 2 2 1 2 2 1 1 1 1 1 2 2 3 3 3 5 7 7 7 8 7 7 7 7 6 7 7 7 7
2 2 2 2 2 2 2 3 3 3 3 3 2 2 1 0 2 1 2 2 2 2 2 2 3 3 3 3 3 5 7 7 7 8 8 8 8 7 7 7 7 8 8
1 2 2 2 2 2 2 3 3 3 3 3 3 2 2 2 2 3 3 3 2 3 3 3 3 3 3 3 3 4 6 7 7 8 8 9 9 8 8 8 8 8 8
1 2 2 2 2 2 3 3 3 4 4 4 3 3 3 3 3 3 3 4 4 3 3 3 3 3 3 3 3 5 6 6 7 7 8 9 9 9 9 9 9 9 9
2 2 2 2 2 2 3 3 3 4 4 5 5 4 3 3 3 3 3 3 4 3 3 3 3 3 3 3 3 4 5 6 7 8 8 8 9 9 9 10 9 9 10
2 2 2 2 3 3 3 3 3 4 4 4 5 5 3 3 3 3 3 3 3 4 4 4 2 3 3 3 4 5 5 6 7 8 8 9 9 9 10 10 10 10 10
1 2 3 3 2 3 3 4 3 4 4 4 5 5 4 3 3 4 3 4 4 4 5 3 3 3 3 3 4 5 5 6 8 8 8 9 9 9 10 10 10 10 10
1 2 3 3 3 3 3 4 3 4 5 5 4 5 5 4 3 4 4 4 4 5 5 4 4 4 4 4 5 6 6 7 8 8 8 9 9 9 10 10 10 11 10
2 3 3 3 3 3 3 4 4 4 5 5 5 6 6 5 4 4 4 4 4 4 5 4 4 4 5 5 5 5 5 5 5 7 8 9 9 9 9 10 10 11 11
2 2 2 3 3 3 4 4 4 5 6 6 6 6 6 5 5 4 4 5 5 5 5 6 4 4 6 6 5 6 5 5 5 6 8 9 10 9 9 9 10 10 10
2 2 2 3 3 3 4 4 5 5 6 6 6 6 6 6 6 4 5 4 4 4 4 5 5 4 5 4 5 5 5 5 5 5 7 8 8 9 9 10 10 9 10
2 2 2 3 3 4 4 4 5 5 5 5 5 5 6 6 6 5 5 5 4 4 4 4 4 4 4 4 4 4 5 4 5 5 6 6 7 8 9 9 9 9 9
2 2 2 3 3 3 4 4 5 5 5 5 5 5 5 6 6 5 4 4 4 4 4 4 4 4 4 4 4 4 5 5 5 4 4 4 5 5 5 6 7 8 9
2 2 2 3 3 3 5 6 5 5 5 5 5 5 5 5 6 6 7 7 6 6 5 5 5 5 6 5 4 4 5 5 5 3 4 5 4 5 4 4 6 8 9
2 2 2 2 3 4 6 6 7 5 5 5 5 4 4 4 5 5 5 6 6 7 8 6 7 7 6 5 5 6 6 6 7 5 5 6 4 5 4 5 8 8 9
2 2 3 3 3 4 5 5 5 5 5 5 5 5 5 5 5 5 4 5 5 5 6 6 6 7 7 6 6 7 7 7 7 4 4 5 5 5 5 5 6 8 8
2 2 2 3 3 4 5 6 5 3 4 4 5 5 5 5 6 6 5 5 6 5 5 7 8 8 9 8 7 4 4 4 5 4 3 4 4 5 5 4 4 6 8
2 2 2 3 3 4 5 6 5 3 3 4 4 4 5 6 6 6 5 5 6 5 5 5 5 6 6 6 7 6 5 5 5 4 2 2 3 3 4 3 3 3 4
Wind_Direction
136 120 102 96 95 108 112 96 101 89 89 112 109 103 95 93 91 95 87 52 33 37 60 60 58 59 64 59 58 61 63 54 42 32 19 14 14 9 7 4 360 4 10
149 140 136 115 97 90 90 110 107 126 99 86 123 117 114 109 96 94 97 86 48 26 33 43 46 47 48 48 49 42 38 38 28 23 13 6 6 2 358 355 355 359 2
166 167 161 141 115 99 131 150 130 128 122 97 125 128 126 109 107 86 63 63 82 41 26 28 31 29 28 28 32 26 21 14 6 3 356 352 350 349 348 348 349 349 353
178 180 167 157 137 141 141 160 157 156 149 140 122 132 146 131 111 81 81 49 24 20 35 29 18 14 8 2 4 360 358 0 358 348 340 336 335 333 333 335 335 332 336
187 185 180 166 169 160 150 146 196 199 171 159 119 107 175 151 138 115 96 64 35 13 357 37 19 6 357 348 341 338 334 337 340 340 332 324 321 321 321 320 321 320 324
186 189 182 170 176 172 159 168 216 203 177 173 162 153 243 155 178 189 170 100 38 15 355 353 339 357 353 345 340 334 327 326 329 328 325 320 309 312 311 307 313 314 318
184 183 188 182 186 186 182 181 191 191 166 172 186 165 145 181 184 207 213 200 80 351 340 334 325 324 321 338 339 331 324 326 325 321 318 317 310 305 307 303 304 304 305
182 191 194 196 199 193 187 190 185 203 182 186 200 193 203 203 186 218 224 225 245 273 302 322 326 324 316 312 332 330 329 328 327 317 311 310 309 302 300 301 300 295 295
193 192 200 197 204 208 200 200 201 204 201 194 198 218 216 226 245 198 222 226 232 249 274 291 301 304 308 307 308 326 331 326 324 321 312 305 308 300 294 296 297 296 289
201 195 200 199 204 210 207 206 210 212 204 205 198 231 252 241 233 236 209 222 239 256 269 279 275 284 291 291 311 326 331 330 328 325 320 312 305 305 294 292 294 295 294
201 196 197 201 208 214 214 216 208 207 207 214 210 212 213 214 237 241 247 247 252 251 263 269 269 271 279 283 290 320 325 329 330 326 323 319 311 305 303 295 292 292 293
203 206 202 205 214 220 220 222 217 208 205 209 213 216 215 207 209 225 242 255 266 263 265 261 261 263 273 279 296 319 316 322 325 324 322 320 317 311 305 300 293 292 292
219 223 216 216 220 226 227 224 222 215 210 209 215 218 225 226 218 223 234 251 270 283 270 254 255 264 272 284 293 315 302 312 318 318 318 317 316 314 310 302 300 294 292
220 224 225 225 227 225 225 227 229 222 214 216 220 221 225 226 221 219 223 234 260 275 268 262 251 249 262 281 300 298 291 301 309 310 311 311 314 316 313 308 301 298 293
229 224 225 222 230 232 226 228 232 228 219 219 224 224 226 228 225 229 227 222 232 255 265 274 268 247 267 281 287 282 286 297 301 303 304 305 310 312 311 310 308 300 297
244 233 229 226 227 233 232 228 232 232 225 223 226 227 231 231 224 229 230 229 232 241 254 261 271 273 277 283 283 282 284 292 286 292 295 297 301 306 307 309 310 308 299
235 233 236 236 235 233 234 235 232 233 232 227 225 226 230 233 225 224 231 229 231 238 250 268 273 269 269 275 281 282 284 284 284 286 291 293 296 299 300 303 307 309 307
244 239 238 241 248 246 241 240 241 238 237 234 229 230 232 231 229 227 230 234 235 239 244 259 269 270 270 271 277 282 284 285 281 287 288 289 290 292 294 297 301 303 304
244 248 243 245 251 254 250 247 245 246 245 242 234 232 235 232 232 229 230 237 245 247 244 249 266 275 273 272 279 282 283 284 287 281 283 281 283 288 291 292 295 296 300
242 251 251 252 253 256 256 251 247 245 250 250 243 235 234 236 237 235 231 233 242 250 249 248 257 265 269 273 275 277 285 289 290 290 277 279 280 280 280 283 289 292 293
258 261 261 263 261 258 253 251 248 247 246 253 249 240 237 243 243 240 241 235 233 241 246 250 256 266 268 266 268 279 283 294 291 281 286 282 277 274 275 275 279 285 288
273 272 267 263 267 269 267 257 253 251 248 249 253 247 240 239 238 239 245 245 241 237 243 251 259 256 266 272 281 279 283 287 287 283 291 286 276 275 277 277 285 289 289
266 270 277 277 278 281 283 269 252 249 246 247 249 249 246 244 236 236 239 245 248 245 241 244 252 257 262 262 266 270 267 270 278 287 292 284 284 278 281 275 277 278 280
252 267 278 282 285 292 297 290 262 245 246 249 250 247 248 247 237 236 241 248 255 255 250 245 246 253 256 256 252 259 266 279 281 272 270 276 286 287 286 273 267 272 281
259 267 275 279 285 295 301 297 279 247 241 251 256 254 255 252 243 243 241 245 257 265 264 257 258 261 262 262 262 259 257 261 274 271 265 269 287 296 286 275 269 273 279
256 270 279 283 285 292 300 296 286 251 243 250 256 257 262 259 255 250 243 241 251 263 269 272 265 266 259 252 249 242 244 249 263 273 248 263 278 302 292 274 281 279 278